Location: Fenile
(46.0500°N, 9.5500°E)
Time: 06:49:02
(UTC+00:00)

Meteor 1-11 Rocket - Pass Details

Date: 03 March 2021
Orbit: 831 x 916 km, 81.2° (Epoch: 10 April)

Event Time Altitude Azimuth Distance (km) Brightness Sun altitude
Rises 19:23:32 0° 190° (S) 3,467 6.8 -23.6°
Reaches altitude 10° 19:26:00 10° 191° (S) 2,520 6.1 -24.0°
Maximum altitude 19:31:44 86° 280° (W) 869 3.7 -24.9°
Drops below altitude 10° 19:37:23 10° 10° (N) 2,482 6.2 -25.9°
Sets 19:39:47 0° 11° (N) 3,412 7.0 -26.2°
